Change the Weather History Date:

Monday, January 6, 2014

  Actual Average Record
Temperature  
Mean Temperature 24 °F -  
Max Temperature 32 °F 59 °F 81 °F (2008)
Min Temperature 16 °F 27 °F 7 °F (1971)
Degree Days  
Heating Degree Days 41    
Moisture  
Dew Point 6 °F    
Average Humidity 47    
Maximum Humidity 65    
Minimum Humidity 31    
Precipitation  
Precipitation 0.00 in - - ()
Sea Level Pressure  
Sea Level Pressure 30.54 in    
Wind  
Wind Speed 10 mph (East)    
Max Wind Speed 18 mph    
Max Gust Speed 28 mph    
Visibility 10 miles    
Events Snow    
Averages and records for this station are not official NWS values.
T = Trace of Precipitation, MM = Missing Value Source: NWS Daily Summary

Daily Weather History Graph

Daily Weather History Graph

Search for Another Location

Airport or City:

Trip Planner

Search our weather history database for the weather conditions in past years. The results will help you decide how hot, cold, wet, or windy it might be!

Date:

Astronomy

Jan. 06, 2014 Rise Set
Actual Time 7:53 AM CST 6:04 PM CST
Civil Twilight 7:26 AM CST 6:30 PM CST
Nautical Twilight 6:56 AM CST 7:00 PM CST
Astronomical Twilight 6:27 AM CST 7:30 PM CST
Moon 11:33 AM CST (1/6) No Moon Set
Length of Visible Light 11h 03m
Length of Day
10h 10m
Waxing Crescent, 35% of the Moon is Illuminated
Jan 6
Waxing Crescent
Jan 7
First Quarter
Jan 15
Full
Jan 23
Last Quarter
Jan 30
New

Hourly Weather History & Observations

Time (CST) Temp. Windchill Dew Point Humidity Pressure Visibility Wind Dir Wind Speed Gust Speed Precip Events Conditions
12:53 AM 28.9 °F 18.2 °F 8.1 °F 41% 30.41 in 10.0 mi East 13.8 mph - 0.00 in   Clear
1:53 AM 26.1 °F 12.7 °F 6.1 °F 43% 30.43 in 10.0 mi East 18.4 mph 27.6 mph N/A   Clear
2:53 AM 23.0 °F 8.7 °F 6.1 °F 48% 30.48 in 10.0 mi East 18.4 mph 23.0 mph N/A   Clear
3:53 AM 21.0 °F 8.1 °F 6.1 °F 53% 30.51 in 10.0 mi ENE 13.8 mph - N/A   Clear
4:53 AM 19.9 °F 9.3 °F 6.1 °F 55% 30.53 in 10.0 mi East 9.2 mph - N/A   Clear
5:53 AM 19.0 °F 9.0 °F 6.1 °F 57% 30.56 in 10.0 mi ENE 8.1 mph - N/A   Clear
6:53 AM 18.0 °F 11.1 °F 6.1 °F 60% 30.59 in 10.0 mi ENE 4.6 mph - N/A   Clear
7:53 AM 16.0 °F 8.8 °F 6.1 °F 65% 30.63 in 10.0 mi NNE 4.6 mph - N/A   Clear
8:53 AM 17.1 °F 6.6 °F 6.1 °F 62% 30.66 in 10.0 mi NE 8.1 mph - N/A   Clear
9:53 AM 18.0 °F 8.7 °F 6.1 °F 60% 30.68 in 10.0 mi ENE 6.9 mph - N/A   Clear
10:53 AM 21.0 °F 12.4 °F 6.1 °F 53% 30.68 in 9.0 mi East 6.9 mph - 0.00 in Snow Light Snow
11:53 AM 23.0 °F 15.8 °F 6.1 °F 48% 30.63 in 10.0 mi SE 5.8 mph - 0.00 in Snow Light Snow
12:53 PM 27.0 °F - 6.1 °F 41% 30.58 in 10.0 mi Calm Calm - 0.00 in   Clear
1:53 PM 28.9 °F - 6.1 °F 38% 30.53 in 9.0 mi Calm Calm - 0.00 in Snow Light Snow
2:53 PM 30.9 °F 25.2 °F 3.9 °F 32% 30.52 in 10.0 mi SE 5.8 mph - 0.00 in   Clear
3:53 PM 32.0 °F 25.6 °F 3.9 °F 31% 30.51 in 10.0 mi SSE 6.9 mph - 0.00 in   Clear
4:53 PM 32.0 °F 24.2 °F 3.9 °F 31% 30.51 in 10.0 mi SSE 9.2 mph - N/A   Clear
5:53 PM 30.0 °F 21.7 °F 5.0 °F 35% 30.51 in 10.0 mi South 9.2 mph - N/A   Clear
6:53 PM 27.0 °F 19.5 °F 5.0 °F 39% 30.51 in 10.0 mi SE 6.9 mph - N/A   Clear
7:53 PM 25.0 °F 17.1 °F 6.1 °F 45% 30.52 in 10.0 mi SE 6.9 mph - N/A   Clear
8:53 PM 24.1 °F 15.2 °F 5.0 °F 44% 30.53 in 10.0 mi SE 8.1 mph - N/A   Clear
9:53 PM 23.0 °F 14.7 °F 5.0 °F 46% 30.52 in 10.0 mi ESE 6.9 mph - N/A   Clear
10:53 PM 23.0 °F 14.7 °F 5.0 °F 46% 30.51 in 9.0 mi ESE 6.9 mph - 0.00 in Snow Light Snow
11:53 PM 21.9 °F 14.5 °F 5.0 °F 48% 30.48 in 10.0 mi ESE 5.8 mph - 0.00 in   Clear